Location: Newark
(0.4500°S, 90.2667°W)
Time: 03:42:10
(UTC+00:00)

N. Korean satellite - Visible Passes

Search period start: 08 December 2019 00:00
Search period end: 18 December 2019 00:00
Orbit: 456 x 506 km, 97.2° (Epoch: 07 December)

Date Brightness Start Highest point End Pass type
(mag) Time Alt. Az. Time Alt. Az. Time Alt. Az.
08 Dec 9.7 10:50:05 10° ENE 10:52:17 16° E 10:54:29 10° SE visible
11 Dec 8.6 11:06:14 10° NE 11:09:17 31° E 11:12:21 10° SSE visible
12 Dec 10.5 00:28:39 10° WSW 00:29:29 11° WSW 00:30:20 10° W visible
12 Dec 10.0 10:42:36 10° ENE 10:43:55 12° E 10:45:14 10° SE visible
14 Dec 6.9 11:22:53 10° NNE 11:26:16 66° E 11:29:40 10° S visible
15 Dec 9.2 10:58:10 10° NE 11:00:54 22° ESE 11:03:38 10° SSE visible
16 Dec 10.0 00:19:05 10° SW 00:21:09 14° WSW 00:23:13 10° WNW visible
